Simultaneous Nadir Overpasses (SNOs) Predictions

Prediction of SNOs between NOAA-20 and METOP-B Satellite Orbit:

Table of predicted SNOs for the next 14.0 days since TLE Epoch: 2/10/2020
Index Date (NOAA-20) Time (NOAA-20) Lat,Lon (NOAA-20) SZA (NOAA-20 ) Date (METOP-B) Time (METOP-B) Lat,Lon (METOP-B) SZA (METOP-B ) Distance(km) Time Diff (sec)
1 02/24/2020 06:59:10 -73.44,-114.46 96.61 02/24/2020 07:00:17 -73.40,-111.71 96.82 87.56 67
2 02/24/2020 07:49:52 73.26, 53.26 83.18 02/24/2020 07:51:01 73.16, 55.10 82.96 60.13 69
3 02/24/2020 08:40:34 -73.14,-139.17 96.97 02/24/2020 08:41:45 -73.08,-137.75 97.13 46.41 71
4 02/24/2020 09:31:16 72.96, 28.53 82.82 02/24/2020 09:32:28 72.89, 29.17 82.70 22.29 72
5 02/24/2020 10:21:58 -72.84,-163.91 97.33 02/24/2020 10:23:12 -72.81,-163.67 97.39 8.67 74
6 02/24/2020 11:12:42 72.76, 3.58 82.57 02/24/2020 11:13:52 72.77, 3.58 82.56 0.91 70
7 02/24/2020 12:03:26 -72.74, 170.92 97.46 02/24/2020 12:04:35 -72.74, 170.84 97.48 2.69 69
8 02/24/2020 12:54:12 72.76, -21.80 82.55 02/24/2020 12:55:14 72.75, -21.80 82.52 1.67 62
9 02/24/2020 13:44:56 -72.75, 145.54 97.48 02/24/2020 13:45:56 -72.77, 145.57 97.48 2.49 60
10 02/24/2020 14:35:41 72.71, -47.08 82.47 02/24/2020 14:36:36 72.73, -47.18 82.48 3.72 55
11 02/24/2020 15:26:26 -72.75, 120.16 97.51 02/24/2020 15:27:18 -72.75, 120.19 97.52 0.91 52
12 02/24/2020 16:17:11 72.72, -72.46 82.45 02/24/2020 16:17:58 72.71, -72.56 82.43 3.65 47
13 02/24/2020 17:07:56 -72.75, 94.78 97.53 02/24/2020 17:08:40 -72.73, 94.81 97.57 2.94 44
14 02/24/2020 17:58:41 72.72, -97.84 82.43 02/24/2020 17:59:19 72.74, -97.84 82.43 1.88 38
15 02/24/2020 18:49:25 -72.71, 69.50 97.61 02/24/2020 18:50:02 -72.71, 69.42 97.61 2.58 37
16 02/24/2020 19:40:11 72.72,-123.22 82.40 02/24/2020 19:40:41 72.72,-123.22 82.39 0.71 30
17 02/24/2020 20:30:55 -72.71, 44.12 97.63 02/24/2020 20:31:23 -72.74, 44.15 97.61 3.43 28
18 02/24/2020 21:21:41 72.73,-148.60 82.38 02/24/2020 21:22:03 72.70,-148.60 82.35 3.29 22




NCC Satellite Simultaneous Nadir Overpasses (SNOs) Prediction Service
